Nellis AFB, NV

7:00 PM PST on December 14, 2019 (GMT -0800)
Nellis Air Force Base

Weather History for KLSV - October, 2019

Change the Weather History Date:

Thursday, October 24, 2019

  Actual Average Record
Temperature  
Mean Temperature 64 °F -  
Max Temperature 73 °F 73 °F 87 °F (2003)
Min Temperature 56 °F 50 °F 42 °F (1996)
Growing Degree Days 14 (Base 50)    
Moisture  
Dew Point 16 °F    
Average Humidity 15    
Maximum Humidity 18    
Minimum Humidity 9    
Precipitation  
Precipitation 0.00 in - - ()
Sea Level Pressure  
Sea Level Pressure 30.22 in    
Wind  
Wind Speed 18 mph (North)    
Max Wind Speed 31 mph    
Max Gust Speed 39 mph    
Visibility 10 miles    
Events      
Averages and records for this station are not official NWS values.
T = Trace of Precipitation, MM = Missing Value Source: NWS Daily Summary

Daily Weather History Graph

Daily Weather History Graph

Search for Another Location

Airport or City:

Astronomy

Oct. 24, 2019 Rise Set
Actual Time 6:55 AM PDT 5:52 PM PDT
Civil Twilight 6:28 AM PDT 6:19 PM PDT
Nautical Twilight 5:58 AM PDT 6:49 PM PDT
Astronomical Twilight 5:29 AM PDT 7:18 PM PDT
Moon 2:40 AM PDT (10/24) 4:13 PM PDT (10/24)
Length of Visible Light 11h 50m
Length of Day
10h 57m
Waning Crescent, 16% of the Moon is Illuminated
Oct 24
Waning Crescent
Oct 27
New
Nov 4
First Quarter
Nov 12
Full
Nov 19
Last Quarter

Hourly Weather History & Observations

Time (PDT) Temp. Dew Point Humidity Pressure Visibility Wind Dir Wind Speed Gust Speed Precip Events Conditions
12:58 AM 66.6 °F 20.3 °F 17% 30.11 in 10.0 mi NE 5.8 mph - N/A   Clear
1:58 AM 66.2 °F 21.4 °F 18% 30.13 in 10.0 mi North 25.3 mph - N/A   Clear
2:58 AM 64.9 °F 19.0 °F 17% 30.09 in 10.0 mi North 27.6 mph 34.5 mph N/A   Clear
3:58 AM 64.2 °F 17.1 °F 16% 30.17 in 10.0 mi North 27.6 mph 35.7 mph N/A   Clear
4:58 AM 63.1 °F 14.7 °F 15% 30.21 in 10.0 mi NNW 28.8 mph 38.0 mph N/A   Clear
5:58 AM 62.4 °F 15.6 °F 16% 30.21 in 10.0 mi NNW 31.1 mph 39.1 mph N/A   Clear
6:31 AM 62.6 °F 17.6 °F 18% 30.23 in 10.0 mi North 27.6 mph 34.5 mph N/A   Squalls
6:43 AM 62.6 °F 17.6 °F 18% - 10.0 mi North 26.5 mph 34.5 mph N/A   Squalls
6:58 AM 62.6 °F 15.8 °F 16% 30.28 in 10.0 mi North 25.3 mph 33.4 mph N/A   Clear
7:58 AM 62.8 °F 16.0 °F 16% 30.29 in 10.0 mi NNW 17.3 mph - N/A   Clear
8:58 AM 64.9 °F 16.2 °F 15% 30.33 in 10.0 mi NNW 18.4 mph - N/A   Clear
9:58 AM 66.2 °F 17.2 °F 15% 30.34 in 10.0 mi North 20.7 mph 26.5 mph N/A   Clear
10:58 AM 67.6 °F 16.7 °F 14% 30.33 in 10.0 mi North 18.4 mph - N/A   Clear
12:58 PM 70.7 °F 13.6 °F 11% 30.28 in 10.0 mi North 16.1 mph 28.8 mph N/A   Clear
1:58 PM 72.3 °F 14.9 °F 11% 30.19 in 10.0 mi North 15.0 mph 26.5 mph N/A   Clear
2:58 PM 73.8 °F 13.8 °F 10% 30.24 in 10.0 mi North 17.3 mph - N/A   Clear
3:58 PM 73.6 °F 13.6 °F 10% 30.23 in 10.0 mi North 18.4 mph - N/A   Clear
4:58 PM 73.6 °F 11.3 °F 9% 30.16 in 10.0 mi NNE 11.5 mph - N/A   Partly Cloudy
5:58 PM 70.5 °F 13.5 °F 11% 30.16 in 10.0 mi North 9.2 mph - N/A   Partly Cloudy
6:58 PM 67.1 °F 10.6 °F 11% 30.19 in 10.0 mi NNE 9.2 mph - N/A   Partly Cloudy
7:58 PM 63.7 °F 13.6 °F 14% 30.20 in 10.0 mi NE 8.1 mph - N/A   Clear
8:58 PM 61.0 °F 14.4 °F 16% 30.22 in 10.0 mi NE 4.6 mph - N/A   Partly Cloudy
9:58 PM 56.8 °F 13.8 °F 18% 30.24 in 10.0 mi NE 8.1 mph - N/A   Clear
10:58 PM 62.8 °F 16.0 °F 16% 30.24 in 10.0 mi NE 11.5 mph - N/A   Clear
11:58 PM 59.0 °F 15.4 °F 18% 30.25 in 10.0 mi NE 17.3 mph - N/A   Clear